Location: El Gallo
(32.4380°N, 116.9347°W)
Time: 18:59:59
(UTC+00:00)

Cosmos 1536 - Pass Details

Date: 01 October 2022
Orbit: 535 x 554 km, 82.5° (Epoch: 01 December)

Event Time Altitude Azimuth Distance (km) Brightness Sun altitude
Rises 12:05:04 0° 348° (NNW) 2,740 6.4 -21.2°
Reaches altitude 10° 12:07:16 10° 344° (NNW) 1,840 5.4 -20.7°
Enters shadow 12:11:08 55° 273° (W) 667 2.8 -19.9°
Exits shadow 12:14:05 18° 193° (SSW) 1,404 4.7 -19.3°
Drops below altitude 10° 12:15:09 10° 189° (S) 1,821 5.3 -19.1°
Sets 12:17:20 0° 184° (S) 2,707 6.2 -18.6°
